Home   Weather   Hannover   Past weeks

Flag for Germany Past Weather in Hannover, Lower Saxony, Germany — Yesterday and Last 2 Weeks

Now
54 °F

Passing clouds.


Feels Like: 51 °F
Forecast: 39 / 54 °F
Wind: 9 mph from North

Location: Hannover

Current Time: Mar 25, 2017 at 2:32:35 pm

Latest Report: Mar 25, 2017 at 1:20 pm


Visibility: N/A

Pressure: 30.42 "Hg

Humidity: 33%

Dew Point: 25 °F

Location of HannoverLocation

Past Weather in Hannover — Graph

°F

Hannover Temperature Yesterday

Maximum temperature yesterday: 55 °F (at 2:50 pm)
Minimum temperature yesterday: 32 °F (at 6:20 am)
Average temperature yesterday: 44 °F

High & Low Weather Summary for the Past Weeks

 TemperatureHumidityPressure
High59 °F (Mar 16, 3:20 pm)100% (Mar 12, 5:20 am)30.51 "Hg (Mar 12, 5:20 am)
Low30 °F (Mar 12, 5:20 am)24% (Mar 25, 12:20 pm)29.42 "Hg (Mar 18, 6:20 am)
Average45 °F74%30.07 "Hg
* Reported Mar 10 1:20 pm — Mar 25 1:20 pm, Hannover, Weather by CustomWeather, © 2017

Note: Actual official high and low records may vary slightly from our data, if they occured in-between our weather recording intervals... More about our weather records

Advertising

Hannover Weather History for the Previous 24 Hours

Scroll right to see more
 ConditionsComfort  
Time TempWeatherWind HumidityBarometerVisibility
1:20 pm
Sat, Mar 25
54 °FPassing clouds.9 mph33%30.42 "HgN/A
12:50 pm54 °FPassing clouds.8 mph33%30.42 "HgN/A
12:20 pm54 °FPassing clouds.8 mph24%30.42 "HgN/A
11:50 am52 °FPassing clouds.7 mph28%30.45 "HgN/A
11:20 am52 °FPassing clouds.6 mph26%30.45 "HgN/A
10:50 am50 °FSunny.3 mph35%30.45 "Hg10 mi
10:20 am48 °FSunny.2 mph43%30.48 "Hg10 mi
9:50 am46 °FSunny.2 mph57%30.48 "Hg10 mi
9:20 am45 °FSunny.2 mph66%30.48 "Hg10 mi
8:50 am41 °FSunny.3 mph76%30.48 "Hg10 mi
8:20 am37 °FSunny.2 mph81%30.48 "Hg10 mi
7:50 am34 °FSunny.3 mph87%30.48 "Hg10 mi
7:20 am32 °FSunny.2 mph93%30.48 "Hg10 mi
6:50 am30 °FSunny.3 mph93%30.48 "Hg10 mi
6:20 am30 °FSunny.6 mph93%30.48 "Hg10 mi
5:50 am32 °FFog.3 mph87%30.48 "HgN/A
5:20 am32 °FFog.5 mph93%30.48 "HgN/A
4:50 am32 °FFog.3 mph87%30.48 "HgN/A
4:20 am32 °FClear.2 mph87%30.48 "Hg10 mi
3:50 am34 °FClear.2 mph87%30.48 "Hg10 mi
3:20 am32 °FClear.1 mph93%30.48 "Hg10 mi
2:50 am32 °FClear.1 mph93%30.51 "Hg10 mi
2:20 am32 °FPassing clouds.3 mph87%30.51 "HgN/A
1:50 am34 °FClear.2 mph87%30.51 "Hg10 mi
1:20 am34 °FClear.1 mph93%30.51 "Hg10 mi
12:50 am36 °FClear.1 mph81%30.51 "Hg10 mi
12:20 am36 °FClear.1 mph81%30.51 "Hg10 mi
11:50 pm
Fri, Mar 24
36 °FClear.1 mph87%30.51 "Hg10 mi
11:20 pm37 °FClear.2 mph81%30.51 "Hg10 mi
10:50 pm37 °FClear.3 mph81%30.51 "Hg10 mi
10:20 pm39 °FClear.2 mph75%30.51 "Hg10 mi
9:50 pm43 °FClear.2 mph66%30.48 "Hg10 mi
9:20 pm45 °FClear.2 mph61%30.48 "Hg10 mi
8:50 pm43 °FClear.5 mph66%30.48 "Hg10 mi
8:20 pm43 °FClear.5 mph66%30.48 "Hg10 mi
7:50 pm45 °FClear.3 mph61%30.48 "Hg10 mi
6:50 pm48 °FClear.6 mph54%30.45 "Hg10 mi
6:20 pm50 °FSunny.7 mph50%30.45 "Hg10 mi
5:50 pm54 °FSunny.9 mph44%30.45 "Hg10 mi
5:20 pm54 °FSunny.10 mph44%30.45 "Hg10 mi
4:50 pm55 °FSunny.10 mph38%30.45 "Hg10 mi
4:20 pm55 °FPassing clouds.9 mph41%30.45 "HgN/A
3:50 pm55 °FSunny.12 mph41%30.45 "Hg10 mi
3:20 pm55 °FPassing clouds.10 mph38%30.45 "HgN/A
2:50 pm55 °FPassing clouds.12 mph41%30.45 "HgN/A
2:20 pm54 °FPassing clouds.10 mph44%30.45 "HgN/A
Weather by CustomWeather, © 2017

See weather overviewHow to use our weather pages